Weather History for Wooster, OH

Change the Weather History Date:

Wednesday, March 12, 2014

  Actual Average Record
Temperature  
Mean Temperature 26 °F -  
Max Temperature 41 °F 41 °F 62 °F (2006)
Min Temperature 10 °F 24 °F 10 °F (2014)
Degree Days  
Heating Degree Days 40    
Moisture  
Dew Point 23 °F    
Average Humidity 85    
Maximum Humidity 93    
Minimum Humidity 76    
Precipitation  
Precipitation 0.50 in - - ()
Sea Level Pressure  
Sea Level Pressure 29.54 in    
Wind  
Wind Speed 16 mph (North)    
Max Wind Speed 34 mph    
Max Gust Speed 46 mph    
Visibility 3 miles    
Events Fog , Rain , Snow    
Averages and records for this station are not official NWS values.
T = Trace of Precipitation, MM = Missing Value Source: NWS Daily Summary

Daily Weather History Graph

Daily Weather History Graph

Search for Another Location

Airport:

Trip Planner

Search our weather history database for the weather conditions in past years. The results will help you decide how hot, cold, wet, or windy it might be!

Date:

Astronomy

Mar. 12, 2014 Rise Set
Actual Time 7:44 AM EDT 7:31 PM EDT
Civil Twilight 7:16 AM EDT 7:58 PM EDT
Nautical Twilight 6:45 AM EDT 8:30 PM EDT
Astronomical Twilight 6:12 AM EDT 9:02 PM EDT
Moon 3:59 PM EDT (3/12) 5:16 AM EDT (3/12)
Length of Visible Light 12h 41m
Length of Day
11h 46m
Waxing Gibbous, 85% of the Moon is Illuminated
Mar 12
Waxing Gibbous
Mar 16
Full
Mar 23
Last Quarter
Mar 30
New
Apr 7
First Quarter

Hourly Weather History & Observations

Time (EDT) Temp. Windchill Dew Point Humidity Pressure Visibility Wind Dir Wind Speed Gust Speed Precip Events Conditions
12:56 AM 41.0 °F 36.4 °F 34.0 °F 76% 29.65 in 7.0 mi ENE 6.9 mph - N/A   Partly Cloudy
1:56 AM 39.9 °F 35.1 °F 34.0 °F 79% 29.61 in 8.0 mi NE 6.9 mph - N/A   Clear
2:56 AM 39.9 °F 33.4 °F 34.0 °F 79% 29.56 in 9.0 mi NE 10.4 mph - N/A   Clear
3:56 AM 39.9 °F 35.1 °F 35.1 °F 83% 29.52 in 10.0 mi ENE 6.9 mph - N/A   Mostly Cloudy
4:56 AM 39.9 °F 34.5 °F 35.1 °F 83% 29.49 in 10.0 mi ENE 8.1 mph - 0.00 in Rain Light Rain
5:56 AM 37.9 °F 32.1 °F 36.0 °F 93% 29.45 in 3.0 mi NNE 8.1 mph - 0.13 in Rain Rain
6:38 AM 37.9 °F 31.5 °F 36.0 °F 93% 29.41 in 3.0 mi ENE 9.2 mph - 0.10 in Rain Rain
6:56 AM 37.9 °F 30.5 °F 36.0 °F 93% 29.41 in 3.0 mi NE 11.5 mph - 0.14 in Rain Rain
7:28 AM 37.9 °F 30.0 °F 36.0 °F 93% 29.37 in 4.0 mi ENE 12.7 mph - 0.08 in Rain Rain
7:56 AM 37.9 °F 29.6 °F 36.0 °F 93% 29.36 in 6.0 mi NE 13.8 mph - 0.10 in Rain Light Rain
8:07 AM 37.9 °F 30.0 °F 36.0 °F 93% 29.34 in 7.0 mi NE 12.7 mph - 0.00 in Rain Light Rain
8:28 AM 37.9 °F 31.5 °F 36.0 °F 93% 29.33 in 6.0 mi NNE 9.2 mph - 0.00 in Rain Light Rain
8:56 AM 37.9 °F 31.5 °F 36.0 °F 93% 29.35 in 4.0 mi NNE 9.2 mph - 0.01 in Rain Light Rain
9:07 AM 37.9 °F 31.5 °F 36.0 °F 93% 29.31 in 2.5 mi North 9.2 mph - 0.01 in Rain Light Rain
9:16 AM 37.0 °F 30.4 °F 35.1 °F 93% 29.31 in 3.0 mi North 9.2 mph - 0.01 in Rain Light Rain
9:30 AM 37.0 °F 28.9 °F 35.1 °F 93% 29.29 in 4.0 mi NNE 12.7 mph - 0.01 in Rain Light Rain
9:56 AM 37.0 °F 29.3 °F 35.1 °F 93% 29.29 in 4.0 mi North 11.5 mph - 0.02 in Rain Light Rain
10:14 AM 35.1 °F 25.9 °F 33.1 °F 92% 29.31 in 2.0 mi North 13.8 mph - 0.03 in Rain Rain
10:23 AM 34.0 °F 22.1 °F 32.0 °F 92% 29.31 in 2.5 mi North 21.9 mph - 0.05 in Rain Rain
10:34 AM 33.1 °F 20.3 °F 30.9 °F 92% 29.33 in 3.0 mi North 24.2 mph 31.1 mph 0.07 in Rain Heavy Rain
10:56 AM 32.0 °F 18.9 °F 30.0 °F 92% 29.34 in 3.0 mi North 24.2 mph 32.2 mph 0.09 in Rain Light Freezing Rain
11:05 AM 32.0 °F 19.2 °F 28.9 °F 88% 29.32 in 2.5 mi North 23.0 mph 33.4 mph 0.00 in Snow Light Snow
11:12 AM 32.0 °F 19.8 °F 28.9 °F 88% 29.30 in 1.0 mi North 20.7 mph 33.4 mph 0.00 in Snow Light Snow
11:16 AM 32.0 °F 20.5 °F 28.9 °F 88% 29.31 in 0.8 mi North 18.4 mph 31.1 mph 0.00 in Snow Light Snow
11:27 AM 32.0 °F 19.2 °F 28.9 °F 88% 29.30 in 0.5 mi NNE 23.0 mph 34.5 mph 0.00 in Fog , Snow Snow
11:47 AM 32.0 °F 20.1 °F 28.9 °F 88% 29.28 in 1.0 mi NNE 19.6 mph 32.2 mph 0.00 in Snow Light Snow
11:49 AM 32.0 °F 19.8 °F 28.9 °F 88% 29.27 in 1.2 mi NNE 20.7 mph 33.4 mph 0.00 in Snow Light Snow
11:53 AM 32.0 °F 19.8 °F 28.4 °F 87% 29.26 in 2.0 mi NNE 20.7 mph 33.4 mph 0.00 in Snow Light Snow
11:56 AM 32.0 °F 20.1 °F 28.9 °F 88% 29.29 in 2.5 mi North 19.6 mph 33.4 mph 0.00 in Snow Light Snow
12:03 PM 32.0 °F 20.5 °F 28.9 °F 88% 29.26 in 4.0 mi NNE 18.4 mph 35.7 mph 0.01 in Snow Light Snow
12:15 PM 32.0 °F 21.2 °F 28.0 °F 85% 29.28 in 7.0 mi NNE 16.1 mph 33.4 mph 0.01 in   Overcast
12:56 PM 32.0 °F 22.1 °F 28.9 °F 88% 29.30 in 6.0 mi North 13.8 mph 28.8 mph 0.01 in   Overcast
1:12 PM 32.0 °F 19.8 °F 28.0 °F 85% 29.33 in 2.0 mi NNE 20.7 mph 31.1 mph 0.00 in Snow Light Snow
1:21 PM 32.0 °F 19.2 °F 28.0 °F 85% 29.31 in 1.5 mi North 23.0 mph 33.4 mph 0.00 in Snow Light Snow
1:56 PM 30.0 °F 15.2 °F 27.0 °F 88% 29.38 in 0.8 mi North 28.8 mph 38.0 mph 0.00 in Snow Light Snow
2:16 PM 30.0 °F 16.0 °F 26.1 °F 85% 29.37 in 0.5 mi North 25.3 mph 34.5 mph 0.00 in Fog , Snow Light Snow
2:30 PM 28.9 °F 12.5 °F 26.1 °F 89% 29.39 in 0.5 mi North 34.5 mph 43.7 mph 0.00 in Fog , Snow Light Snow
2:35 PM 28.9 °F 13.0 °F 25.0 °F 85% 29.39 in 1.0 mi North 32.2 mph 43.7 mph 0.00 in Snow Light Snow
2:40 PM 28.9 °F 14.5 °F 25.0 °F 85% 29.39 in 2.0 mi North 25.3 mph 43.7 mph 0.00 in Snow Light Snow
2:51 PM 28.4 °F 12.5 °F 24.8 °F 86% 29.39 in 1.5 mi North 31.1 mph 39.1 mph 0.00 in Snow Light Snow
2:56 PM 28.9 °F 12.8 °F 25.0 °F 85% 29.43 in 1.5 mi North 33.4 mph 46.0 mph 0.00 in Snow Light Snow
3:03 PM 28.9 °F 14.5 °F 25.0 °F 85% 29.41 in 0.8 mi North 25.3 mph 46.0 mph 0.00 in Snow Light Snow
3:26 PM 27.0 °F 10.8 °F 24.1 °F 89% 29.46 in 0.2 mi North 29.9 mph 43.7 mph 0.00 in Fog , Snow Heavy Snow
3:48 PM 27.0 °F 11.3 °F 23.0 °F 85% 29.47 in 1.0 mi North 27.6 mph 39.1 mph 0.00 in Snow Light Snow
3:51 PM 26.6 °F 10.3 °F 23.0 °F 86% 29.48 in 1.2 mi North 29.9 mph 38.0 mph 0.00 in Snow Light Snow
3:56 PM 27.0 °F 11.3 °F 23.0 °F 85% 29.51 in 1.2 mi North 27.6 mph 38.0 mph 0.00 in Snow Light Snow
4:17 PM 26.1 °F 10.4 °F 21.9 °F 84% 29.52 in 1.5 mi North 26.5 mph 38.0 mph 0.00 in Snow Light Snow
4:28 PM 26.1 °F 9.6 °F 21.0 °F 81% 29.54 in 2.0 mi NNW 29.9 mph 38.0 mph 0.00 in Snow Light Snow
4:36 PM 26.1 °F 10.4 °F 21.0 °F 81% 29.55 in 2.0 mi North 26.5 mph 41.4 mph 0.00 in Snow Light Snow
4:46 PM 26.1 °F 11.0 °F 21.0 °F 81% 29.56 in 3.0 mi North 24.2 mph 38.0 mph 0.00 in Snow Light Snow
4:56 PM 26.1 °F 11.3 °F 21.0 °F 81% 29.60 in 2.0 mi North 23.0 mph 34.5 mph 0.00 in Snow Light Snow
5:09 PM 25.0 °F 10.2 °F 21.0 °F 85% 29.60 in 1.8 mi NNW 21.9 mph 35.7 mph 0.00 in Snow Light Snow
5:42 PM 23.0 °F 6.3 °F 18.0 °F 81% 29.64 in 1.8 mi NNW 26.5 mph 34.5 mph 0.00 in Snow Light Snow
5:49 PM 21.9 °F 4.8 °F 17.1 °F 82% 29.65 in 2.0 mi NNW 26.5 mph 35.7 mph 0.00 in Snow Light Snow
5:56 PM 21.9 °F 5.5 °F 17.1 °F 82% 29.70 in 2.0 mi NNW 24.2 mph 36.8 mph 0.00 in Snow Light Snow
6:05 PM 21.9 °F 6.5 °F 17.1 °F 82% 29.68 in 1.5 mi NNW 20.7 mph 31.1 mph 0.00 in Snow Light Snow
6:15 PM 21.0 °F 4.3 °F 17.1 °F 85% 29.69 in 1.0 mi NNW 24.2 mph 31.1 mph 0.00 in Snow Light Snow
6:23 PM 21.0 °F 4.6 °F 16.0 °F 81% 29.70 in 0.8 mi North 23.0 mph 35.7 mph 0.00 in Snow Light Snow
6:44 PM 19.9 °F 2.8 °F 15.1 °F 81% 29.73 in 1.2 mi North 24.2 mph 33.4 mph 0.00 in Snow Light Snow
6:56 PM 19.9 °F 4.3 °F 15.1 °F 81% 29.78 in 1.5 mi North 19.6 mph 28.8 mph 0.00 in Snow Light Snow
7:08 PM 19.9 °F 3.2 °F 16.0 °F 85% 29.75 in 1.0 mi North 23.0 mph 31.1 mph 0.00 in Snow Light Snow
7:17 PM 19.9 °F 3.2 °F 14.0 °F 78% 29.76 in 1.8 mi North 23.0 mph 33.4 mph 0.00 in Snow Light Snow
7:56 PM 19.0 °F 4.0 °F 14.0 °F 81% 29.83 in 1.0 mi NNW 17.3 mph - 0.00 in Snow Light Snow
8:11 PM 18.0 °F 2.6 °F 14.0 °F 84% 29.79 in 1.8 mi NNW 17.3 mph - 0.00 in Snow Light Snow
8:19 PM 18.0 °F 3.1 °F 14.0 °F 84% 29.80 in 1.8 mi NNW 16.1 mph 23.0 mph 0.00 in Snow Light Snow
8:21 PM 18.0 °F 1.7 °F 12.9 °F 81% 29.80 in 2.0 mi North 19.6 mph 28.8 mph 0.00 in Snow Light Snow
8:33 PM 18.0 °F 2.6 °F 12.9 °F 81% 29.81 in 1.8 mi NNW 17.3 mph 28.8 mph 0.00 in Snow Light Snow
8:46 PM 17.1 °F -0.3 °F 12.9 °F 84% 29.82 in 1.8 mi NW 21.9 mph - 0.00 in Snow Light Snow
8:56 PM 17.1 °F 0.1 °F 12.0 °F 81% 29.87 in 1.8 mi NNW 20.7 mph 28.8 mph 0.00 in Snow Light Snow
9:04 PM 16.0 °F -0.9 °F 12.0 °F 84% 29.83 in 2.0 mi NNW 19.6 mph 26.5 mph 0.00 in Snow Light Snow
9:56 PM 14.0 °F -3.9 °F 9.0 °F 80% 29.91 in 3.0 mi NNW 20.7 mph 27.6 mph 0.00 in Snow Light Snow
10:28 PM 12.0 °F -6.9 °F 6.1 °F 77% 29.88 in 10.0 mi NNW 21.9 mph 27.6 mph 0.00 in   Scattered Clouds
10:38 PM 12.0 °F -5.6 °F 6.1 °F 77% 29.88 in 9.0 mi NNW 18.4 mph - 0.00 in Snow Light Snow
10:53 PM 10.4 °F -8.6 °F 6.8 °F 85% 29.89 in 9.0 mi NNW 20.7 mph 26.5 mph 0.00 in Snow Light Snow
10:56 PM 10.9 °F -7.5 °F 5.0 °F 77% 29.94 in 9.0 mi NNW 19.6 mph 26.5 mph 0.00 in   Overcast
11:17 PM 10.9 °F -6.5 °F 5.0 °F 77% 29.89 in 3.0 mi NNW 17.3 mph - 0.00 in Snow Light Snow
11:24 PM 10.9 °F -6.5 °F 6.1 °F 81% 29.89 in 2.5 mi NNW 17.3 mph 25.3 mph 0.00 in Snow Light Snow
11:31 PM 10.9 °F -5.4 °F 6.1 °F 81% 29.90 in 3.0 mi NNW 15.0 mph 25.3 mph 0.00 in Snow Light Snow
11:56 PM 10.9 °F -4.7 °F 6.1 °F 81% 29.95 in 2.0 mi NNW 13.8 mph 25.3 mph 0.00 in Snow Light Snow